Regional Weather Roundup
Issued by NWS

Home | Current Version | Previous Version | Text Only | Print | Product List | Glossary On
Versions: 1 2 3 4 5 6 7 8 9 10 11 12 13 14 15 16 17 18 19 20 21 22 23 24 25 26 27 28 29 30 31 32 33 34 35 36 37 38 39 40 41 42 43 44 45 46 47 48 49
000
ASUS44 KLIX 250513
RWRLA
LOUISIANA WEATHER ROUNDUP
NATIONAL WEATHER SERVICE NEW ORLEANS LA
1200 AM CDT TUE APR 25 2017

NOTE: "FAIR" INDICATES FEW OR NO CLOUDS BELOW 12,000 FEET WITH NO
      SIGNIFICANT WEATHER AND/OR OBSTRUCTIONS TO VISIBILITY.
      SKY/WX - SKY CONDITION AND SIGNIFICANT WEATHER.
      TMP - AIR TEMPERATURE.    DP   - DEWPOINT TEMPERATURE.
      RH  - RELATIVE HUMIDITY.  PRES - PRESSURE.
      HX  - HEAT INDEX.         WCI  - WIND CHILL INDEX.

*  THESE STATIONS ARE NOT NWS OR FAA STATIONS AND ARE NOT UNDER
   NWS QUALITY CONTROL.

LAZ040-048-061>063-065-066-069-250600-
SOUTHEAST LOUISIANA

CITY           SKY/WX    TMP DP  RH WIND       PRES   REMARKS
N.O. INTL ARPT PTCLDY    62  55  77 W6        29.82R
N.O. LAKEFRONT CLEAR     70  56  61 SW9       29.82R
N.O. DOWNTOWN*   N/A     68  54  60 VRB6        N/A
RESERVE*       NOT AVBL
SLIDELL        CLEAR     57  53  86 CALM      29.81S
BATON ROUGE    CLEAR     58  53  84 CALM      29.82S
BOOTHVILLE     CLEAR     70  60  70 W9        29.82S
BELLE CHASSE   CLEAR    N/A N/A N/A W6        29.82R
BOGALUSA*      NOT AVBL
GALLIANO*      CLEAR     58  54  86 CALM      29.83R
NEW ROADS*     FAIR      55  52  91 CALM      29.82S
GONZALES*      FAIR      59  54  83 CALM      29.82R
HAMMOND*       CLEAR     54  50  87 CALM      29.82S
HOUMA*         PTCLDY    61  56  83 CALM      29.83R
PORT FOURCHON* CLEAR     70  57  64 W5        29.83S

$$

LAZ041-044-053-054-250600-
SOUTHWEST LOUISIANA

CITY           SKY/WX    TMP DP  RH WIND       PRES   REMARKS
LAKE CHARLES   CLEAR     62  56  80 CALM      29.80F
LAFAYETTE      CLEAR     66  54  65 SW5       29.82S
PATTERSON      CLEAR     59  58  96 CALM      29.83S
SALT POINT       N/A     70  56  61 VRB6      29.82S
NEW IBERIA     CLEAR     61  52  72 CALM      29.83S
CHENAULT AIRPK PTCLDY    33  32  95 SE5       29.81S WCI  29

$$

LAZ027-028-250600-
CENTRAL LOUISIANA

CITY           SKY/WX    TMP DP  RH WIND       PRES   REMARKS
FORT POLK      CLEAR     62  55  76 S7        29.78F
ALEXANDRIA INT CLEAR     58  50  75 S5        29.78S
ALEXANDRIA     PTCLDY    51  50  96 CALM      29.80S

$$

LAZ001-002-250600-
NORTHWEST LOUISIANA

CITY           SKY/WX    TMP DP  RH WIND       PRES   REMARKS
SHREVEPORT     PTCLDY    61  47  59 S6        29.74S
BARKSDALE AFB  CLEAR     58  48  68 SE3       29.74S
DTN SHREVEPORT CLEAR     63  48  58 SE7       29.74S

$$

LAZ014-016-250600-
NORTHEAST LOUISIANA

CITY           SKY/WX    TMP DP  RH WIND       PRES   REMARKS
MONROE         CLEAR     59  49  69 S5        29.78F
TALLULAH       CLEAR     53  52  96 CALM      29.80S

$$




USA.gov is the U.S. government's official web portal to all federal, state and local government web resources and services.